Regional Weather Roundup
Issued by NWS

Home | Current Version | Previous Version | Text Only | Print | Product List | Glossary Off
Versions: 1 2 3 4 5 6 7 8 9 10 11 12 13 14 15 16 17 18 19 20 21 22 23 24 25 26 27 28 29 30 31 32 33 34 35 36 37 38 39 40 41 42 43 44 45 46 47 48 49 50

000
ASUS45 KCYS 200010
RWRWY

WYOMING REGIONAL WEATHER ROUNDUP
NATIONAL WEATHER SERVICE CHEYENNE WY
500 PM MST SUN NOV 19 2017

NOTE:  "FAIR" INDICATES FEW OR NO CLOUDS BELOW 12,000 FEET
WITH NO SIGNIFICANT WEATHER AND/OR OBSTRUCTIONS TO VISIBILITY.

WYZ001-200100-
YELLOWSTONE NATIONAL PARK

CITY           SKY/WX    TMP DP  RH WIND       PRES   REMARKS
LK YELLOWSTONE   N/A     20  18  92 CALM      30.06S
6HR MIN TEMP:  20; 6HR MAX TEMP:  28;

W YELLOWSTONE  NOT AVBL

$$
WYZ002>013-054>058-071-098>099-200100-
NORTHERN WYOMING

CITY           SKY/WX    TMP DP  RH WIND       PRES   REMARKS
JACKSON        FAIR      20  14  77 NE9       30.10R WCI   9
CODY           FAIR      47   2  15 W14G24    29.85F
GREYBULL       FAIR      33  23  66 S3        29.88F
6HR MIN TEMP:  29; 6HR MAX TEMP:  37;

WORLAND        FAIR      28  23  81 E7        29.88F WCI  21
6HR MIN TEMP:  27; 6HR MAX TEMP:  35;

SHERIDAN       FAIR      32  27  81 CALM      29.76F
6HR MIN TEMP:  32; 6HR MAX TEMP:  52;

BUFFALO        FAIR      40  13  33 W9        29.79F WCI  34
6HR MIN TEMP:  32; 6HR MAX TEMP:  47;

GILLETTE       FAIR      44  15  31 SW14G23   29.77F
6HR MIN TEMP:  44; 6HR MAX TEMP:  53;

HULETT         FAIR      45  19  36 S14       29.79F
NEWCASTLE      FAIR      37  14  38 S6        29.84F WCI  33

$$
WYZ014>020-022>026-101>103-200100-
CENTRAL WYOMING

CITY           SKY/WX    TMP DP  RH WIND       PRES   REMARKS
BIG PINEY      FAIR      22  16  78 NW8       30.10F WCI  12
6HR MIN TEMP:  19; 6HR MAX TEMP:  32;

PINEDALE       FAIR      27  18  69 W5        30.09S WCI  21
DUBOIS         FAIR      32   7  34 NW13      29.96S WCI  22
LANDER         FAIR      35  12  38 SW7       29.93S WCI  29
6HR MIN TEMP:  25; 6HR MAX TEMP:  38;

RIVERTON       FAIR      30  20  66 MISG      29.93F
6HR MIN TEMP:  26; 6HR MAX TEMP:  38;

CASPER         FAIR      38  17  42 SW15      29.91F WCI  29
6HR MIN TEMP:  38; 6HR MAX TEMP:  43;

DOUGLAS        FAIR      40  16  37 W15       29.87F WCI  32
6HR MIN TEMP:  40; 6HR MAX TEMP:  52;


$$
WYZ021-027>030-104>119-200100-
SOUTHERN WYOMING

CITY           SKY/WX    TMP DP  RH WIND       PRES   REMARKS
EVANSTON       FAIR      29  21  72 SW9       30.11S WCI  20
6HR MIN TEMP:  21; 6HR MAX TEMP:  32;

KEMMERER       FAIR      30  14  51 NW7       30.10S WCI  23
FORT BRIDGER   FAIR      31  15  50 CALM      30.12S
ROCK SPRINGS   FAIR      28  15  58 S5        30.10S WCI  23
6HR MIN TEMP:  22; 6HR MAX TEMP:  33;

DIXON          FAIR      28  15  57 CALM      30.15F
RAWLINS        FLURRIES  33  14  45 SW22G31   30.03F WCI  21
6HR MIN TEMP:  33; 6HR MAX TEMP:  38; 6HR PCP: TRACE;

SARATOGA       FAIR      28  14  54 S12       30.09F WCI  18
LARAMIE        FAIR      32  14  47 SW14      30.01F WCI  22
6HR MIN TEMP:  32; 6HR MAX TEMP:  42;

CHEYENNE       FAIR      45   7  21 W22G33    29.96F
6HR MIN TEMP:  45; 6HR MAX TEMP:  53;

TORRINGTON     FAIR      46   7  20 W13       29.87F
6HR MIN TEMP:  46; 6HR MAX TEMP:  58;

PINE BLUFFS    FAIR      43  14  31 MISG      29.95F

$$



USA.gov is the U.S. government's official web portal to all federal, state and local government web resources and services.